Hanscom AFB, MA

4:38 AM EST on February 27, 2017 (GMT -0500)
Hanscom

Weather History for KBED - November, 2014

Change the Weather History Date:

Thursday, November 13, 2014

  Actual Average Record
Temperature  
Mean Temperature 38 °F -  
Max Temperature 48 °F 48 °F 69 °F (1964)
Min Temperature 28 °F 29 °F 17 °F (1976)
Degree Days  
Heating Degree Days 27    
Moisture  
Dew Point 29 °F    
Average Humidity 69    
Maximum Humidity 96    
Minimum Humidity 41    
Precipitation  
Precipitation 0.14 in - - ()
Sea Level Pressure  
Sea Level Pressure 30.04 in    
Wind  
Wind Speed 4 mph (WNW)    
Max Wind Speed 9 mph    
Max Gust Speed -    
Visibility 9 miles    
Events Rain , Snow    
Averages and records for this station are not official NWS values.
T = Trace of Precipitation, MM = Missing Value Source: NWS Daily Summary

Daily Weather History Graph

Daily Weather History Graph

Search for Another Location

Airport or City:

Trip Planner

Search our weather history database for the weather conditions in past years. The results will help you decide how hot, cold, wet, or windy it might be!

Date:

Astronomy

Nov. 13, 2014 Rise Set
Actual Time 6:33 AM EST 4:24 PM EST
Civil Twilight 6:03 AM EST 4:54 PM EST
Nautical Twilight 5:29 AM EST 5:28 PM EST
Astronomical Twilight 4:56 AM EST 6:01 PM EST
Moon 10:40 PM EST (11/13) 11:50 AM EST (11/13)
Length of Visible Light 10h 51m
Length of Day
9h 51m
Waning Gibbous, 59% of the Moon is Illuminated
Nov 13
Waning Gibbous
Nov 14
Last Quarter
Nov 22
New
Nov 29
First Quarter
Dec 6
Full

Hourly Weather History & Observations

Time (EST) Temp. Windchill Dew Point Humidity Pressure Visibility Wind Dir Wind Speed Gust Speed Precip Events Conditions
12:56 AM 37.9 °F 34.4 °F 30.0 °F 73% 30.06 in 10.0 mi West 4.6 mph - N/A   Clear
1:56 AM 34.0 °F 29.8 °F 28.0 °F 79% 30.07 in 10.0 mi NW 4.6 mph - N/A   Clear
2:56 AM 34.0 °F 28.0 °F 27.0 °F 75% 30.07 in 10.0 mi WNW 6.9 mph - N/A   Clear
3:56 AM 30.0 °F 26.5 °F 26.1 °F 85% 30.09 in 10.0 mi West 3.5 mph - N/A   Clear
4:56 AM 30.0 °F - 27.0 °F 88% 30.09 in 10.0 mi Calm Calm - N/A   Clear
5:56 AM 28.0 °F - 26.1 °F 92% 30.10 in 10.0 mi Calm Calm - N/A   Clear
6:56 AM 28.9 °F 22.8 °F 26.1 °F 89% 30.12 in 10.0 mi West 5.8 mph - N/A   Clear
7:56 AM 35.1 °F - 28.9 °F 78% 30.12 in 10.0 mi Calm Calm - N/A   Clear
8:56 AM 41.0 °F 39.0 °F 28.9 °F 62% 30.10 in 10.0 mi WNW 3.5 mph - N/A   Clear
9:56 AM 44.1 °F 39.0 °F 26.1 °F 49% 30.10 in 10.0 mi NNW 9.2 mph - N/A   Clear
10:56 AM 46.0 °F 42.5 °F 27.0 °F 47% 30.09 in 10.0 mi NNE 6.9 mph - N/A   Clear
11:56 AM 48.0 °F - 27.0 °F 44% 30.06 in 10.0 mi Variable 4.6 mph - N/A   Clear
12:56 PM 46.9 °F - 25.0 °F 42% 30.04 in 10.0 mi Variable 3.5 mph - N/A   Partly Cloudy
1:56 PM 48.0 °F - 25.0 °F 41% 30.03 in 10.0 mi Variable 3.5 mph - N/A   Clear
2:56 PM 46.9 °F - 25.0 °F 42% 30.01 in 10.0 mi Calm Calm - N/A   Scattered Clouds
3:56 PM 48.0 °F - 26.1 °F 42% 30.01 in 10.0 mi Calm Calm - N/A   Overcast
4:56 PM 46.0 °F - 28.9 °F 51% 30.01 in 10.0 mi Calm Calm - N/A   Overcast
5:56 PM 44.1 °F - 30.0 °F 58% 30.01 in 10.0 mi Calm Calm - N/A   Overcast
6:56 PM 43.0 °F 41.3 °F 30.9 °F 62% 30.01 in 10.0 mi WSW 3.5 mph - N/A   Overcast
7:56 PM 43.0 °F 40.3 °F 28.0 °F 56% 30.01 in 10.0 mi NW 4.6 mph - N/A   Overcast
8:56 PM 42.1 °F 39.2 °F 30.0 °F 62% 30.01 in 10.0 mi Variable 4.6 mph - 0.00 in Rain Light Rain
9:54 PM 39.2 °F 35.0 °F 33.8 °F 81% 29.96 in 9.0 mi WNW 5.8 mph - 0.01 in Rain Light Rain
9:56 PM 37.9 °F 33.5 °F 34.0 °F 86% 30.01 in 9.0 mi WNW 5.8 mph - 0.01 in Rain Light Rain
10:42 PM 37.0 °F 30.4 °F 34.0 °F 89% 29.97 in 6.0 mi NW 9.2 mph - 0.04 in Rain Light Rain
10:56 PM 36.0 °F 29.6 °F 34.0 °F 93% 30.01 in 6.0 mi WNW 8.1 mph - 0.06 in Rain Light Rain
11:11 PM 35.1 °F 30.1 °F 34.0 °F 96% 29.96 in 6.0 mi West 5.8 mph - 0.02 in Rain Light Rain
11:56 PM 33.1 °F 28.7 °F 32.0 °F 96% 30.00 in 5.0 mi WNW 4.6 mph - 0.07 in Snow Light Snow